GW2085 Weather Reports


Display with metric or nautical units.
time (UTC)temp
F
wind
direction
speed
MPH
gust
MPH
rain 1hr
in
rain 24hr
in
rain mn
in
humidity
%
barometer
mb
20260831160103 74 186 1.0 4.0 0.00 0.00 0.00 74 1013.9
20260831154630 73 201 2.0 4.0 0.00 0.00 0.00 76 1013.9
20260831153055 71 202 2.0 3.0 0.00 0.00 0.00 80 1013.9
20260831151610 70 201 0.0 3.0 0.00 0.00 0.00 82 1013.9
20260831150106 69 45 1.0 5.0 0.00 0.00 0.00 83 1013.8
20260831144603 68 137 1.0 5.0 0.00 0.00 0.00 83 1013.7
20260831143128 68 0 0.0 3.0 0.00 0.00 0.00 84 1013.7
20260831141621 68 110 1.0 4.0 0.00 0.00 0.00 85 1013.5
20260831140104 68 34 2.0 3.0 0.00 0.00 0.00 85 1013.2
20260831134602 68 0 0.0 1.0 0.00 0.00 0.00 86 1013.0
20260831133103 68 0 0.0 2.0 0.00 0.00 0.00 86 1012.8
20260831131601 68 0 0.0 1.0 0.00 0.00 0.00 87 1012.7
20260831130114 68 0 0.0 2.0 0.00 0.00 0.00 88 1012.7
20260831124601 68 0 0.0 1.0 0.00 0.00 0.00 89 1012.8
20260831123106 68 0 0.0 2.0 0.00 0.00 0.00 89 1012.7
20260831121612 68 0 0.0 1.0 0.00 0.00 0.00 89 1012.7
20260831120114 68 51 0.0 1.0 0.00 0.00 0.00 89 1012.7
20260831114606 68 0 0.0 2.0 0.00 0.00 0.00 89 1012.5
20260831113104 68 0 0.0 2.0 0.00 0.00 0.00 89 1012.6
20260831111607 68 216 1.0 2.0 0.00 0.00 0.00 90 1012.7
20260831104600 68 0 0.0 0.0 0.00 0.00 0.00 90 1012.7
20260831103106 68 0 0.0 1.0 0.00 0.00 0.00 90 1012.8
20260831101608 68 243 1.0 2.0 0.00 0.00 0.00 90 1012.7
20260831094603 68 0 0.0 2.0 0.00 0.00 0.00 90 1012.7
20260831093102 68 197 1.0 3.0 0.00 0.00 0.00 90 1012.8
20260831091604 67 0 0.0 1.0 0.00 0.00 0.00 90 1012.8
20260831090058 67 0 0.0 1.0 0.00 0.00 0.00 91 1012.8
20260831084555 66 0 0.0 0.0 0.00 0.00 0.00 90 1012.9
20260831083104 66 0 0.0 0.0 0.00 0.00 0.00 89 1012.9
20260831081558 66 0 0.0 0.0 0.00 0.00 0.00 89 1012.8
20260831080057 67 0 0.0 0.0 0.00 0.00 0.00 89 1012.9
20260831074557 66 0 0.0 0.0 0.00 0.00 0.00 88 1012.9
20260831073104 67 0 0.0 0.0 0.00 0.00 0.00 87 1013.0
20260831071558 67 0 0.0 0.0 0.00 0.00 0.00 86 1013.0
20260831070059 67 0 0.0 0.0 0.00 0.00 0.00 86 1013.0
20260831064610 68 0 0.0 0.0 0.00 0.00 0.00 86 1013.0
20260831063100 68 0 0.0 1.0 0.00 0.00 0.00 85 1012.9
20260831061603 68 0 0.0 1.0 0.00 0.00 0.00 85 1012.8
20260831060059 69 0 0.0 1.0 0.00 0.00 0.00 84 1012.8
20260831054606 69 0 0.0 0.0 0.00 0.00 0.00 84 1012.7
20260831053057 69 260 0.0 0.0 0.00 0.00 0.00 83 1012.9
20260831051602 70 0 0.0 0.0 0.00 0.00 0.00 82 1012.8
20260831050101 70 0 0.0 0.0 0.00 0.00 0.00 82 1012.8
20260831044614 71 0 0.0 0.0 0.00 0.00 0.00 80 1012.7
20260831043055 71 0 0.0 1.0 0.00 0.00 0.00 80 1012.6
20260831041614 72 0 0.0 1.0 0.00 0.00 0.00 79 1012.4
20260831040101 72 242 0.0 1.0 0.00 0.00 0.00 78 1012.3
20260831034556 73 0 0.0 3.0 0.00 0.00 0.00 77 1012.1
20260831033104 73 175 0.0 1.0 0.00 0.00 0.00 76 1011.8
20260831031554 74 254 0.0 2.0 0.00 0.00 0.00 75 1011.7
20260831030058 75 0 0.0 2.0 0.00 0.00 0.00 73 1011.6
20260831024610 75 0 0.0 2.0 0.00 0.00 0.00 71 1011.6
20260831023056 76 196 0.0 2.0 0.00 0.00 0.00 69 1011.5
20260831021557 78 201 1.0 4.0 0.00 0.00 0.00 66 1011.1
20260831020055 79 0 1.0 5.0 0.00 0.00 0.00 64 1011.0
20260831014558 81 205 1.0 4.0 0.00 0.00 0.00 60 1011.0
20260831013107 82 196 1.0 5.0 0.00 0.00 0.00 57 1010.9
20260831011557 84 223 2.0 5.0 0.00 0.00 0.00 53 1010.9
20260831010101 84 235 2.0 8.0 0.00 0.00 0.00 53 1011.0
20260831004605 86 233 2.0 6.0 0.00 0.00 0.00 50 1011.0
20260831003054 86 275 1.0 6.0 0.00 0.00 0.00 49 1011.0
20260831001603 86 232 1.0 7.0 0.00 0.00 0.00 51 1011.0
20260831000101 86 277 3.0 8.0 0.00 0.00 0.00 48 1011.0
20260830234558 88 225 2.0 7.0 0.00 0.00 0.00 43 1010.9
20260830233112 88 265 2.0 6.0 0.00 0.00 0.00 44 1011.0
20260830231604 87 278 4.0 8.0 0.00 0.00 0.00 44 1011.0
20260830230057 89 252 2.0 8.0 0.00 0.00 0.00 45 1011.0
20260830224559 90 284 2.0 7.0 0.00 0.00 0.00 42 1011.1
20260830223112 91 274 4.0 9.0 0.00 0.00 0.00 39 1011.1
20260830221609 92 96 2.0 5.0 0.00 0.00 0.00 37 1011.2
20260830220101 91 240 2.0 5.0 0.00 0.00 0.00 39 1011.3
20260830214609 91 179 3.0 7.0 0.00 0.00 0.00 41 1011.5
20260830213108 91 173 4.0 10.0 0.00 0.00 0.00 42 1011.6
20260830211607 90 123 3.0 9.0 0.00 0.00 0.00 43 1011.9
20260830210108 91 266 2.0 12.0 0.00 0.00 0.00 42 1012.0
20260830204601 90 266 3.0 8.0 0.00 0.00 0.00 43 1012.1
20260830203109 91 267 3.0 7.0 0.00 0.00 0.00 45 1012.0
20260830201558 92 265 2.0 7.0 0.00 0.00 0.00 44 1012.0
20260830200107 92 215 2.0 8.0 0.00 0.00 0.00 44 1012.1
20260830194603 90 182 3.0 11.0 0.00 0.00 0.00 46 1012.1
20260830193108 91 285 3.0 8.0 0.00 0.00 0.00 45 1012.2
20260830191605 91 255 1.0 6.0 0.00 0.00 0.00 45 1012.3
20260830184557 91 248 2.0 5.0 0.00 0.00 0.00 42 1012.7
20260830183058 89 206 4.0 6.0 0.00 0.00 0.00 46 1012.6
20260830181558 88 251 3.0 7.0 0.00 0.00 0.00 52 1012.7
20260830180114 87 248 3.0 5.0 0.00 0.00 0.00 55 1012.7
20260830174612 86 193 2.0 6.0 0.00 0.00 0.00 55 1012.8
20260830173059 85 259 3.0 6.0 0.00 0.00 0.00 55 1012.7
20260830171605 84 142 0.0 3.0 0.00 0.00 0.00 61 1012.5
20260830170100 83 79 1.0 3.0 0.00 0.00 0.00 64 1012.4
20260830164604 81 0 2.0 5.0 0.00 0.00 0.00 66 1012.5
20260830163105 80 271 1.0 3.0 0.00 0.00 0.00 68 1012.4
20260830161606 79 192 0.0 3.0 0.00 0.00 0.00 70 1012.6